• En España
  • Lista de países
  • Para 7 días
  • Temperatura del agua
  • Mapa Satelital
  • El tiempo en el mapa
  • Informadores
  • user-avatar
    Iniciar sesión

    Tiempo cada hora Benguela

    Hoy, 18 Agosto, Viernes

    Tiempo Temperatura Precipitaciones Viento Presión Humedad
    00:00 +20°C° 0 mm 0 mps 760 mmHg 87%
    01:00 +20°C° 0 mm 0 mps 760 mmHg 89%
    02:00 +20°C° 0 mm 0 mps 760 mmHg 90%
    03:00 +19°C° 0 mm 0 mps 760 mmHg 90%
    04:00 +19°C° 0 mm 0 mps 759 mmHg 91%
    05:00 +19°C° 0 mm 0 mps 760 mmHg 89%
    06:00 +20°C° 0 mm 0 mps 760 mmHg 87%
    07:00 +22°C° 0 mm 1 mps 760 mmHg 84%
    08:00 +25°C° 0 mm 1 mps 760 mmHg 73%
    09:00 +27°C° 0 mm 1 mps 760 mmHg 62%
    10:00 +30°C° 0 mm 1 mps 759 mmHg 51%
    11:00 +31°C° 0 mm 2 mps 759 mmHg 48%
    12:00 +33°C° 0 mm 3 mps 758 mmHg 44%
    13:00 +34°C° 0 mm 4 mps 758 mmHg 42%
    14:00 +33°C° 0 mm 4 mps 758 mmHg 47%
    15:00 +32°C° 0 mm 4 mps 757 mmHg 52%
    16:00 +30°C° 0 mm 4 mps 757 mmHg 58%
    17:00 +28°C° 0 mm 3 mps 758 mmHg 66%
    18:00 +26°C° 0 mm 3 mps 758 mmHg 73%
    19:00 +24°C° 0 mm 2 mps 759 mmHg 81%
    20:00 +24°C° 0 mm 2 mps 759 mmHg 82%
    21:00 +24°C° 0 mm 1 mps 760 mmHg 84%
    22:00 +23°C° 0 mm 1 mps 760 mmHg 85%
    23:00 +23°C° 0 mm 2 mps 760 mmHg 86%

    Mañana, 19 Agosto, Sábado

    Tiempo Temperatura Precipitaciones Viento Presión Humedad
    00:00 +23°C° 0 mm 2 mps 760 mmHg 86%
    01:00 +23°C° 0 mm 2 mps 760 mmHg 86%
    02:00 +23°C° 0 mm 2 mps 760 mmHg 86%
    03:00 +23°C° 0 mm 2 mps 759 mmHg 86%
    04:00 +22°C° 0 mm 3 mps 759 mmHg 86%
    05:00 +22°C° 0 mm 3 mps 759 mmHg 84%
    06:00 +23°C° 0 mm 2 mps 759 mmHg 82%
    07:00 +24°C° 0 mm 2 mps 760 mmHg 80%
    08:00 +27°C° 0 mm 2 mps 760 mmHg 68%
    09:00 +30°C° 0 mm 2 mps 760 mmHg 56%
    10:00 +34°C° 0 mm 2 mps 760 mmHg 44%
    11:00 +34°C° 0 mm 3 mps 760 mmHg 43%
    12:00 +35°C° 0 mm 4 mps 759 mmHg 42%
    13:00 +35°C° 0 mm 5 mps 758 mmHg 40%
    14:00 +34°C° 0 mm 4 mps 758 mmHg 44%
    15:00 +33°C° 0 mm 4 mps 758 mmHg 48%
    16:00 +32°C° 0 mm 4 mps 757 mmHg 52%
    17:00 +29°C° 0 mm 4 mps 758 mmHg 58%
    18:00 +28°C° 0 mm 4 mps 759 mmHg 64%
    19:00 +26°C° 0 mm 3 mps 759 mmHg 70%
    20:00 +26°C° 0 mm 3 mps 760 mmHg 72%
    21:00 +25°C° 0 mm 2 mps 760 mmHg 75%
    22:00 +25°C° 0 mm 2 mps 761 mmHg 77%
    23:00 +24°C° 0 mm 2 mps 761 mmHg 77%

    Pasado mañana, 20 Agosto, Domingo

    Tiempo Temperatura Precipitaciones Viento Presión Humedad
    00:00 +24°C° 0 mm 2 mps 760 mmHg 77%
    01:00 +24°C° 0 mm 2 mps 760 mmHg 77%
    02:00 +24°C° 0 mm 2 mps 760 mmHg 77%
    03:00 +24°C° 0 mm 2 mps 760 mmHg 76%
    04:00 +24°C° 0 mm 2 mps 759 mmHg 75%
    05:00 +24°C° 0 mm 2 mps 760 mmHg 73%
    06:00 +24°C° 0 mm 2 mps 760 mmHg 72%
    07:00 +25°C° 0 mm 2 mps 760 mmHg 70%
    08:00 +28°C° 0 mm 2 mps 761 mmHg 60%
    09:00 +30°C° 0 mm 2 mps 761 mmHg 51%
    10:00 +34°C° 0 mm 2 mps 761 mmHg 41%
    11:00 +35°C° 0 mm 3 mps 760 mmHg 39%
    12:00 +36°C° 0 mm 3 mps 759 mmHg 38%
    13:00 +36°C° 0 mm 4 mps 758 mmHg 36%
    14:00 +35°C° 0 mm 4 mps 758 mmHg 41%
    15:00 +34°C° 0 mm 4 mps 758 mmHg 46%
    16:00 +32°C° 0 mm 4 mps 757 mmHg 50%
    17:00 +29°C° 0 mm 3 mps 758 mmHg 58%
    18:00 +27°C° 0 mm 3 mps 759 mmHg 66%
    19:00 +25°C° 0 mm 3 mps 760 mmHg 74%
    20:00 +24°C° 0 mm 2 mps 760 mmHg 77%
    21:00 +24°C° 0 mm 2 mps 761 mmHg 80%
    22:00 +23°C° 0 mm 1 mps 762 mmHg 84%
    23:00 +23°C° 0 mm 1 mps 761 mmHg 86%

    21 Agosto, Lunes

    Tiempo Temperatura Precipitaciones Viento Presión Humedad
    00:00 +22°C° 0 mm 1 mps 761 mmHg 88%
    01:00 +22°C° 0 mm 1 mps 761 mmHg 90%
    02:00 +22°C° 0 mm 1 mps 761 mmHg 91%
    03:00 +21°C° 0 mm 1 mps 760 mmHg 92%
    04:00 +21°C° 0 mm 1 mps 760 mmHg 93%
    05:00 +21°C° 0 mm 1 mps 760 mmHg 92%
    06:00 +21°C° 0 mm 1 mps 761 mmHg 91%
    07:00 +21°C° 0 mm 1 mps 761 mmHg 91%
    08:00 +24°C° 0 mm 1 mps 761 mmHg 79%
    09:00 +27°C° 0 mm 1 mps 761 mmHg 67%
    10:00 +29°C° 0 mm 1 mps 761 mmHg 55%
    11:00 +31°C° 0 mm 2 mps 760 mmHg 51%
    12:00 +33°C° 0 mm 3 mps 759 mmHg 46%
    13:00 +34°C° 0 mm 4 mps 758 mmHg 42%
    14:00 +33°C° 0 mm 4 mps 758 mmHg 46%
    15:00 +32°C° 0 mm 4 mps 757 mmHg 50%
    16:00 +29°C° 0 mm 4 mps 757 mmHg 54%
    17:00 +28°C° 0 mm 3 mps 758 mmHg 61%
    18:00 +26°C° 0 mm 2 mps 759 mmHg 68%
    19:00 +24°C° 0 mm 2 mps 759 mmHg 75%
    20:00 +24°C° 0 mm 2 mps 760 mmHg 75%
    21:00 +24°C° 0 mm 1 mps 760 mmHg 76%
    22:00 +24°C° 0 mm 1 mps 761 mmHg 76%
    23:00 +23°C° 0 mm 1 mps 761 mmHg 77%

    22 Agosto, Martes

    Tiempo Temperatura Precipitaciones Viento Presión Humedad
    00:00 +23°C° 0 mm 1 mps 760 mmHg 79%
    01:00 +21°C° 0 mm 0 mps 760 mmHg 80%
    02:00 +23°C° 0 mm 1 mps 759 mmHg 80%
    03:00 +23°C° 0 mm 1 mps 759 mmHg 80%
    04:00 +22°C° 0 mm 1 mps 759 mmHg 81%
    05:00 +23°C° 0 mm 1 mps 759 mmHg 80%
    06:00 +23°C° 0 mm 2 mps 760 mmHg 80%
    07:00 +23°C° 0 mm 2 mps 760 mmHg 79%
    08:00 +26°C° 0 mm 2 mps 760 mmHg 70%
    09:00 +28°C° 0 mm 3 mps 760 mmHg 60%
    10:00 +31°C° 0 mm 3 mps 760 mmHg 51%
    11:00 +33°C° 0 mm 3 mps 759 mmHg 47%
    12:00 +34°C° 0 mm 3 mps 758 mmHg 43%
    13:00 +36°C° 0 mm 4 mps 757 mmHg 40%
    14:00 +34°C° 0 mm 4 mps 756 mmHg 46%
    15:00 +31°C° 0 mm 3 mps 756 mmHg 52%
    16:00 +30°C° 0 mm 3 mps 756 mmHg 58%
    17:00 +28°C° 0 mm 3 mps 756 mmHg 66%
    18:00 +26°C° 0 mm 2 mps 757 mmHg 74%
    19:00 +24°C° 0 mm 1 mps 758 mmHg 82%
    20:00 +24°C° 0 mm 1 mps 758 mmHg 83%
    21:00 +23°C° 0 mm 1 mps 759 mmHg 83%
    22:00 +23°C° 0 mm 1 mps 759 mmHg 83%
    23:00 +23°C° 0 mm 1 mps 759 mmHg 83%

    23 Agosto, Miércoles

    Tiempo Temperatura Precipitaciones Viento Presión Humedad
    00:00 +23°C° 0 mm 1 mps 759 mmHg 83%
    01:00 +23°C° 0 mm 1 mps 759 mmHg 83%
    02:00 +23°C° 0 mm 1 mps 758 mmHg 83%
    03:00 +22°C° 0 mm 1 mps 758 mmHg 83%
    04:00 +22°C° 0 mm 1 mps 758 mmHg 83%
    05:00 +23°C° 0 mm 2 mps 758 mmHg 81%
    06:00 +23°C° 0 mm 2 mps 759 mmHg 79%
    07:00 +23°C° 0 mm 2 mps 759 mmHg 78%
    08:00 +25°C° 0 mm 3 mps 759 mmHg 68%
    09:00 +28°C° 0 mm 3 mps 759 mmHg 59%
    10:00 +30°C° 0 mm 3 mps 759 mmHg 50%
    11:00 +32°C° 0 mm 4 mps 758 mmHg 49%
    12:00 +32°C° 0 mm 4 mps 758 mmHg 48%
    13:00 +33°C° 0 mm 4 mps 757 mmHg 46%
    14:00 +32°C° 0 mm 4 mps 757 mmHg 51%
    15:00 +30°C° 0 mm 4 mps 756 mmHg 55%
    16:00 +29°C° 0 mm 4 mps 756 mmHg 59%
    17:00 +27°C° 0 mm 3 mps 757 mmHg 66%
    18:00 +26°C° 0 mm 2 mps 758 mmHg 73%
    19:00 +24°C° 0 mm 1 mps 758 mmHg 80%
    20:00 +24°C° 0 mm 1 mps 759 mmHg 80%
    21:00 +24°C° 0 mm 1 mps 760 mmHg 81%
    22:00 +24°C° 0 mm 1 mps 760 mmHg 82%
    23:00 +24°C° 0 mm 1 mps 760 mmHg 83%
    Mostrar más